FW7000 Weather Reports


time (UTC)temp
C
wind
direction
speed
KPH
gust
KPH
rain 1hr
cm
rain 24hr
cm
rain mn
cm
humidity
%
barometer
mb
20260503050520 13 213 0.0 0.0 0.00 0.00 0.00 52 1016.7
20260503050018 13 214 0.0 1.6 0.00 0.00 0.00 52 1017.0
20260503045515 13 217 0.0 0.0 0.00 0.00 0.00 51 1016.7
20260503045012 13 210 1.6 1.6 0.00 0.00 0.00 50 1016.7
20260503044509 13 209 0.0 0.0 0.00 0.00 0.00 50 1016.9
20260503044006 13 215 0.0 0.0 0.00 0.00 0.00 50 1017.3
20260503043502 13 218 0.0 0.0 0.00 0.00 0.00 49 1017.3
20260503042959 13 221 1.6 1.6 0.00 0.00 0.00 49 1017.2
20260503042456 13 217 0.0 0.0 0.00 0.00 0.00 52 1017.3
20260503041952 13 223 0.0 1.6 0.00 0.00 0.00 50 1017.1
20260503041449 13 217 0.0 0.0 0.00 0.00 0.00 52 1017.4
20260503040947 13 220 0.0 0.0 0.00 0.00 0.00 52 1017.2
20260503040444 13 217 0.0 0.0 0.00 0.00 0.00 51 1017.3
20260503035941 13 212 0.0 0.0 0.00 0.00 0.00 51 1017.5
20260503035437 13 212 0.0 0.0 0.00 0.00 0.00 52 1017.7
20260503034935 13 214 0.0 0.0 0.00 0.00 0.00 51 1017.7
20260503034427 13 212 0.0 1.6 0.00 0.00 0.00 51 1017.8
20260503033924 13 209 1.6 1.6 0.00 0.00 0.00 50 1017.9
20260503033421 13 220 0.0 0.0 0.00 0.00 0.00 50 1018.2
20260503032919 13 211 0.0 0.0 0.00 0.00 0.00 51 1017.9
20260503032418 13 217 0.0 0.0 0.00 0.00 0.00 51 1018.2
20260503031915 13 220 0.0 0.0 0.00 0.00 0.00 51 1018.1
20260503031412 13 211 0.0 1.6 0.00 0.00 0.00 51 1018.1
20260503030909 13 214 0.0 1.6 0.00 0.00 0.00 50 1018.2
20260503030405 13 199 3.2 4.8 0.00 0.00 0.00 46 1018.3
20260503025901 13 213 1.6 1.6 0.00 0.00 0.00 50 1018.2
20260503025353 13 216 1.6 1.6 0.00 0.00 0.00 52 1018.2
20260503024850 13 216 0.0 0.0 0.00 0.00 0.00 52 1018.2
20260503024346 13 213 0.0 0.0 0.00 0.00 0.00 51 1018.3
20260503023843 13 212 0.0 0.0 0.00 0.00 0.00 50 1018.3
20260503023341 13 215 0.0 0.0 0.00 0.00 0.00 49 1018.4
20260503022837 13 211 0.0 0.0 0.00 0.00 0.00 48 1018.5
20260503022332 13 213 0.0 0.0 0.00 0.00 0.00 48 1018.3
20260503021829 13 207 0.0 0.0 0.00 0.00 0.00 47 1018.4
20260503021325 13 216 0.0 0.0 0.00 0.00 0.00 47 1018.5
20260503020822 13 210 1.6 3.2 0.00 0.00 0.00 44 1018.5
20260503020321 13 211 0.0 0.0 0.00 0.00 0.00 48 1018.5
20260503015817 13 206 1.6 1.6 0.00 0.00 0.00 50 1018.5
20260503015314 13 192 1.6 1.6 0.00 0.00 0.00 49 1018.3
20260503014809 13 210 0.0 0.0 0.00 0.00 0.00 47 1018.6
20260503014307 13 216 0.0 0.0 0.00 0.00 0.00 47 1018.5
20260503013804 14 214 0.0 0.0 0.00 0.00 0.00 46 1018.6
20260503013302 14 208 1.6 1.6 0.00 0.00 0.00 45 1018.3
20260503012759 14 208 1.6 1.6 0.00 0.00 0.00 44 1018.6
20260503012256 15 211 0.0 0.0 0.00 0.00 0.00 43 1018.6
20260503011753 15 194 1.6 1.6 0.00 0.00 0.00 43 1018.6
20260503011250 15 211 0.0 0.0 0.00 0.00 0.00 43 1018.5
20260503010746 15 215 0.0 0.0 0.00 0.00 0.00 41 1018.7
20260503010243 15 197 1.6 1.6 0.00 0.00 0.00 43 1018.7
20260503005740 15 212 0.0 0.0 0.00 0.00 0.00 43 1018.6
20260503005237 15 216 0.0 0.0 0.00 0.00 0.00 46 1018.5
20260503004733 15 216 0.0 0.0 0.00 0.00 0.00 42 1018.7
20260503004232 15 214 0.0 0.0 0.00 0.00 0.00 41 1018.7
20260503003729 15 202 1.6 1.6 0.00 0.00 0.00 40 1018.8
20260503003226 15 219 1.6 1.6 0.00 0.00 0.00 39 1018.9
20260503002722 15 228 3.2 3.2 0.00 0.00 0.00 39 1018.7
20260503002219 15 213 1.6 1.6 0.00 0.00 0.00 38 1019.0
20260503001714 15 208 1.6 3.2 0.00 0.00 0.00 38 1019.2
20260503001212 15 209 3.2 3.2 0.00 0.00 0.00 38 1019.2
20260503000709 16 251 3.2 4.8 0.00 0.00 0.00 37 1019.2
20260503000207 16 201 4.8 8.0 0.00 0.00 0.00 37 1019.3
20260502235704 16 232 1.6 3.2 0.00 0.00 0.00 36 1019.1
20260502235202 16 208 1.6 1.6 0.00 0.00 0.00 38 1019.2
20260502234657 16 222 3.2 3.2 0.00 0.00 0.00 37 1019.3
20260502234155 16 188 1.6 1.6 0.00 0.00 0.00 38 1019.2
20260502233651 16 189 3.2 4.8 0.00 0.00 0.00 36 1019.3
20260502233148 16 243 1.6 1.6 0.00 0.00 0.00 36 1019.3
20260502232644 16 223 3.2 3.2 0.00 0.00 0.00 36 1019.7
20260502232141 16 221 1.6 1.6 0.00 0.00 0.00 36 1019.6
20260502231637 16 199 1.6 3.2 0.00 0.00 0.00 37 1019.9
20260502231135 16 224 1.6 1.6 0.00 0.00 0.00 36 1019.6
20260502230634 16 208 1.6 3.2 0.00 0.00 0.00 37 1019.8
20260502230132 16 208 3.2 3.2 0.00 0.00 0.00 38 1019.6
20260502225627 16 229 3.2 3.2 0.00 0.00 0.00 37 1019.9
20260502225125 15 215 0.0 0.0 0.00 0.00 0.00 37 1019.8
20260502224621 15 189 4.8 4.8 0.00 0.00 0.00 38 1020.0
20260502224118 16 231 4.8 4.8 0.00 0.00 0.00 36 1020.1
20260502223615 16 229 3.2 3.2 0.00 0.00 0.00 37 1020.3
20260502223114 16 12 4.8 8.0 0.00 0.00 0.00 36 1020.0
20260502222611 16 229 8.0 12.9 0.00 0.00 0.00 36 1020.0
20260502222107 17 213 1.6 1.6 0.00 0.00 0.00 36 1019.9
20260502221603 17 215 1.6 3.2 0.00 0.00 0.00 34 1020.2
20260502221100 17 228 1.6 3.2 0.00 0.00 0.00 35 1020.2
20260502220556 17 263 4.8 8.0 0.00 0.00 0.00 35 1020.1
20260502220052 17 224 3.2 4.8 0.00 0.00 0.00 34 1020.4
20260502215550 16 199 4.8 4.8 0.00 0.00 0.00 36 1020.3
20260502215047 17 219 4.8 4.8 0.00 0.00 0.00 35 1020.3
20260502214543 16 235 1.6 3.2 0.00 0.00 0.00 36 1020.4
20260502214041 16 214 4.8 9.7 0.00 0.00 0.00 35 1020.4
20260502213538 17 209 4.8 4.8 0.00 0.00 0.00 33 1020.5
20260502213036 16 228 1.6 3.2 0.00 0.00 0.00 35 1020.7
20260502212534 16 217 3.2 3.2 0.00 0.00 0.00 33 1020.9
20260502212031 16 227 3.2 4.8 0.00 0.00 0.00 35 1021.0
20260502211521 17 233 3.2 4.8 0.00 0.00 0.00 34 1020.9
20260502211018 17 169 4.8 4.8 0.00 0.00 0.00 32 1020.9
20260502210515 17 265 3.2 4.8 0.00 0.00 0.00 31 1020.9
20260502210012 17 277 4.8 8.0 0.00 0.00 0.00 34 1021.0
20260502205509 17 341 4.8 8.0 0.00 0.00 0.00 33 1021.2
20260502205006 16 236 1.6 3.2 0.00 0.00 0.00 32 1021.1
20260502204503 17 145 3.2 4.8 0.00 0.00 0.00 31 1021.2
20260502204001 16 221 4.8 4.8 0.00 0.00 0.00 32 1021.1
20260502203457 16 211 6.4 8.0 0.00 0.00 0.00 35 1021.3
20260502202954 16 202 0.0 1.6 0.00 0.00 0.00 34 1021.4
20260502202451 16 341 3.2 3.2 0.00 0.00 0.00 34 1021.6
20260502201949 16 228 4.8 4.8 0.00 0.00 0.00 31 1021.6
20260502201444 16 258 1.6 3.2 0.00 0.00 0.00 35 1021.6
20260502200941 16 215 6.4 12.9 0.00 0.00 0.00 32 1021.8
20260502200437 16 221 4.8 4.8 0.00 0.00 0.00 33 1021.8
20260502195935 16 286 1.6 4.8 0.00 0.00 0.00 34 1021.9
20260502195432 16 199 4.8 8.0 0.00 0.00 0.00 33 1021.8
20260502194928 16 200 6.4 11.3 0.00 0.00 0.00 33 1022.1
20260502194425 16 230 6.4 8.0 0.00 0.00 0.00 33 1022.1
20260502193921 15 256 4.8 4.8 0.00 0.00 0.00 36 1022.1
20260502193418 16 206 4.8 8.0 0.00 0.00 0.00 33 1022.3
20260502192913 16 254 3.2 3.2 0.00 0.00 0.00 32 1022.4
20260502192410 16 221 3.2 3.2 0.00 0.00 0.00 34 1022.2
20260502191908 16 223 1.6 3.2 0.00 0.00 0.00 32 1022.2
20260502191406 16 242 8.0 11.3 0.00 0.00 0.00 30 1022.5
20260502190903 16 221 8.0 11.3 0.00 0.00 0.00 31 1022.2
20260502190400 16 227 4.8 4.8 0.00 0.00 0.00 35 1022.4
20260502185856 16 319 12.9 14.5 0.00 0.00 0.00 30 1022.4
20260502185351 15 333 3.2 4.8 0.00 0.00 0.00 32 1022.7
20260502184848 15 157 3.2 4.8 0.00 0.00 0.00 34 1022.8
20260502184338 15 250 4.8 4.8 0.00 0.00 0.00 33 1023.0
20260502183835 15 232 6.4 9.7 0.00 0.00 0.00 33 1023.1
20260502183331 15 148 8.0 12.9 0.00 0.00 0.00 33 1023.1
20260502182826 15 265 3.2 3.2 0.00 0.00 0.00 33 1023.2
20260502182322 15 203 3.2 4.8 0.00 0.00 0.00 32 1023.4
20260502181819 15 113 3.2 4.8 0.00 0.00 0.00 32 1023.4
20260502181318 14 253 4.8 4.8 0.00 0.00 0.00 36 1023.4
20260502180815 15 272 4.8 8.0 0.00 0.00 0.00 34 1023.7
20260502180313 15 259 4.8 8.0 0.00 0.00 0.00 33 1023.6
20260502170231 13 234 8.0 9.7 0.00 0.00 0.00 33 1024.1
20260502164218 13 323 4.8 4.8 0.00 0.00 0.00 39 1024.3
20260502163713 13 177 8.0 11.3 0.00 0.00 0.00 36 1024.2
20260502163205 13 256 6.4 9.7 0.00 0.00 0.00 37 1024.6
20260502162702 13 252 6.4 11.3 0.00 0.00 0.00 36 1024.6
20260502162159 13 54 6.4 8.0 0.00 0.00 0.00 38 1024.8
20260502161656 13 239 6.4 11.3 0.00 0.00 0.00 38 1024.7
20260502161152 13 217 3.2 4.8 0.00 0.00 0.00 37 1024.7
20260502160651 13 248 4.8 4.8 0.00 0.00 0.00 38 1024.6
20260502160150 12 254 3.2 4.8 0.00 0.00 0.00 39 1024.5
20260502152109 12 250 3.2 3.2 0.00 0.00 0.00 46 1025.2
20260502151606 11 219 3.2 4.8 0.00 0.00 0.00 46 1025.2
20260502151103 11 239 1.6 3.2 0.00 0.00 0.00 45 1025.3
20260502150601 11 226 3.2 3.2 0.00 0.00 0.00 47 1025.2
20260502130446 5 213 1.6 3.2 0.00 0.00 0.00 68 1025.8
20260502123428 4 182 1.6 1.6 0.00 0.00 0.00 71 1025.9
20260502122926 3 204 0.0 0.0 0.00 0.00 0.00 74 1025.8
20260502122422 3 215 0.0 0.0 0.00 0.00 0.00 75 1026.0
20260502121920 2 209 0.0 1.6 0.00 0.00 0.00 76 1025.7
20260502121417 2 214 0.0 0.0 0.00 0.00 0.00 76 1025.9
20260502120915 2 211 0.0 0.0 0.00 0.00 0.00 76 1025.8
20260502120410 1 212 0.0 0.0 0.00 0.00 0.00 79 1025.7
20260502115908 0 217 0.0 0.0 0.00 0.00 0.00 81 1025.6
20260502115405 0 220 0.0 0.0 0.00 0.00 0.00 81 1025.7
20260502114900 0 217 0.0 0.0 0.00 0.00 0.00 82 1025.7
20260502114358 0 223 0.0 0.0 0.00 0.00 0.00 82 1025.6
20260502113855 0 220 0.0 0.0 0.00 0.00 0.00 82 1025.7
20260502113352 0 216 0.0 0.0 0.00 0.00 0.00 82 1025.5
20260502112850 0 217 0.0 0.0 0.00 0.00 0.00 82 1025.7
20260502112348 0 214 0.0 0.0 0.00 0.00 0.00 82 1025.5
20260502111845 0 216 0.0 0.0 0.00 0.00 0.00 82 1025.6
20260502111342 0 216 0.0 0.0 0.00 0.00 0.00 82 1025.5
20260502110840 0 216 0.0 0.0 0.00 0.00 0.00 81 1025.3
20260502110338 0 217 0.0 0.0 0.00 0.00 0.00 81 1025.4
20260502105835 0 210 0.0 0.0 0.00 0.00 0.00 81 1025.6
20260502105332 0 200 0.0 0.0 0.00 0.00 0.00 82 1025.6
20260502104830 0 215 0.0 0.0 0.00 0.00 0.00 82 1025.9
20260502104327 0 212 0.0 0.0 0.00 0.00 0.00 82 1025.4
20260502103824 0 216 0.0 0.0 0.00 0.00 0.00 82 1025.7
20260502103321 0 215 0.0 0.0 0.00 0.00 0.00 82 1025.6
20260502102818 0 207 0.0 0.0 0.00 0.00 0.00 80 1025.6
20260502102314 0 211 0.0 0.0 0.00 0.00 0.00 79 1025.5
20260502101813 0 218 0.0 0.0 0.00 0.00 0.00 78 1025.6
20260502101310 0 212 0.0 0.0 0.00 0.00 0.00 80 1025.6
20260502100809 0 215 0.0 0.0 0.00 0.00 0.00 79 1025.7
20260502100307 0 199 0.0 1.6 0.00 0.00 0.00 79 1025.7
20260502091241 2 173 3.2 4.8 0.00 0.00 0.00 70 1025.9
20260502090739 2 210 1.6 1.6 0.00 0.00 0.00 70 1025.8
20260502090235 2 209 0.0 0.0 0.00 0.00 0.00 71 1025.9
20260502071136 0 218 0.0 0.0 0.00 0.00 0.00 82 1026.3
20260502070634 0 215 0.0 0.0 0.00 0.00 0.00 82 1026.2
20260502070131 0 210 0.0 0.0 0.00 0.00 0.00 81 1026.5
20260502065629 0 214 0.0 0.0 0.00 0.00 0.00 81 1026.5
20260502065126 0 215 0.0 0.0 0.00 0.00 0.00 79 1026.4
20260502064626 0 216 0.0 0.0 0.00 0.00 0.00 78 1026.5
20260502064122 0 206 0.0 0.0 0.00 0.00 0.00 76 1026.4
20260502063620 0 214 0.0 0.0 0.00 0.00 0.00 75 1026.6
20260502063117 1 216 0.0 0.0 0.00 0.00 0.00 75 1026.6
20260502062614 1 218 0.0 0.0 0.00 0.00 0.00 74 1026.5
20260502062112 1 216 0.0 0.0 0.00 0.00 0.00 72 1026.5
20260502061610 1 218 0.0 0.0 0.00 0.00 0.00 73 1026.5
20260502061107 1 218 0.0 0.0 0.00 0.00 0.00 72 1026.3
20260502060602 1 215 0.0 0.0 0.00 0.00 0.00 70 1026.4
20260502060059 1 203 0.0 0.0 0.00 0.00 0.00 71 1026.3
20260502055556 1 214 0.0 0.0 0.00 0.00 0.00 72 1026.6
20260502055055 1 214 0.0 0.0 0.00 0.00 0.00 72 1026.6
20260502054553 1 215 0.0 0.0 0.00 0.00 0.00 71 1026.4
20260502054049 1 216 0.0 0.0 0.00 0.00 0.00 70 1026.6
20260502053546 1 217 0.0 0.0 0.00 0.00 0.00 70 1026.1
20260502053044 1 213 0.0 0.0 0.00 0.00 0.00 69 1026.3
20260502052543 2 216 0.0 0.0 0.00 0.00 0.00 68 1026.5
20260502052040 2 216 0.0 0.0 0.00 0.00 0.00 68 1026.7
20260502051538 2 216 0.0 0.0 0.00 0.00 0.00 67 1026.3
20260502051036 2 220 0.0 0.0 0.00 0.00 0.00 67 1026.4